Zurück zum Katalog

COSMOS 1275 DEB

AktivPO
NORAD 12766·DEBRIS·🇷🇺 Russia

Gestartet Jun 4, 1981 von Plesetsk Cosmodrome

Loading…

Nächste Überflüge (nächste 24 Stunden)

TLE

AktuellSource: Space-Track

Epoche: Sep 14, 2026, 04:10 UTC

1 12766U 81053DK  26257.17393899  .00000305  00000-0  31582-3 0  9990
2 12766  82.9470  53.1550 0100084  36.2996  86.7945 13.70465835244035

Verfolge COSMOS 1275 DEB in Echtzeit mit AllMySat

Download on the App Store